[Date Prev][Date Next][Thread Prev][Thread Next][Date Index][Thread Index][JAMSAT Home]

[jamsat-news:1787] jas2info #311


========================   最新情報   ==============================

        Last updated  29Mar2003  16:00(JST)   #311

====================================================================
   
1)アマチュア通信衛星情報、FOシリーズの軌道要素、テレメトリ、QSOの
   状況等をまとめてみました.
   
 FO−29の2003年3月29日(土)の15:00(JST)のパスでは
JARLのホームページにあるとうりアナログ運用でした。 今日までの観測した
テレメトリーと本日のテレメトリ最終行の分析結果を報告しておきます。

AS32655C  29Mar2003
14:07-14:10(JST)
AOS   MEL  LOS  Elev
 27    98  168  28.1
Freq. 435.788-.787Hz
(JAS-2  No.120  B 390-540)

HI HI AE C7 88 55 00 D4 05 36 67 7E 61 91 9  
HI HI AE C7 88 55 00 D4 05 35 09 06 3B 6A 72 89 91 93 B0 94 B1 AF B1 B0 AF 
HI HI AE C7 88 55 00 D4 05 38 64 58 5A 79 61 88 91 93 B0 95 B1 AF B1 B0 AF 

AS32643C  28Mar2003
16:04-16:05(JST)
AOS   MEL  LOS  Elev
 11   284  196  84.9
Freq. 435.802-.790Hz
(JAS-2  No.120  B 280-390 )

HI HI AE C7 88 55 00 D4 7B 37 09 04 2C 4        90 90    36 B2 B0 B2 B2 AE 
HI HI AE C7 88 55 00 D4 7B 37 09 04 20 5E     5 90 89 7B 90 B2 B0 B2 B2 AE 
HI HI AE 07 88 55 00 D4 7B 37 09 04 49 8F     0 90 90 B0 63 B2 B0 B2 B1 AE 
HI HI AE C7 88 55 00 D4 7B 37 09 04 68       59 75 8F B0 85 B2 B0 B2 B1 AE 
HI HI AE C7 88 55 00 D4 AF A9 09 06 7D 1B 80 5F 8F 90 8E 68 B2 B0 B2 B1 AE 
HI HI AT C7 88 55 00 D4 00 44 09 55 78 2D 78 5B 86 90 90 B9 B2 B0 B1 B1 AE 
HI HI AE C7 88 55 00 D4 7B 65 25 5B 79 6D 7A  9 80 B0 63 B9 B2 B0 B2 B1 AE 

AS32642C  28Mar2003
16:04-16:05(JST)
AOS   MEL  LOS  Elev
 11   284  196  84.9
Freq. 435.802-.790Hz
(JAS-2  No.120  B 280-390 )

HI HI AE C7 88 55 09 D4 AE 3D 09 10 8F 82 77 61 92 93 B0 72 B1 AF B1 B1 AF 
HI HI AE C7 88 55 09 D4 AE 3A 09 1A 72 77 6E 61 9O

AS32614C  26Mar2003
14:13-14:21(JST)
AOS   MEL  LOS  Elev
 46    92  137   7.4
Freq. 435.802-.790Hz
(JAS-2  No.120  A 0-280 )

                                                      B0 68 B3 B1 B2 B2 AF 
HI HI AE C7 88 55 00 D4 92 3C 09 02 71 2A 81 60 90 92 B0 73 B2 B1 B2 B2 AF 
HI HI AE C7 88 55 00 D4 92 3C 09 02 48 40 7A 60 91 92 H0 7B B2 B0 B2 B2 AF 
HI HI AE C7 88 55 00 D4 92 5F 09 55 39 56 78 60 91 92 B0 94 B2 B0 B2 B2 B0 
HI HI AE C7 88 55 00 D4 92 3C 09 02 56 6C 74 61 91 92 B0 8C B2 B0 B2 B2 B0 
HI HI AE C7 88 55 00 D4 92 3C 09 02 7D 56 7A 61 91 93 B0 89 B2 B0 B2 B2 AF 
HI HI AE C7 88 55 00 D4 92 3C 09 02 8E 40 81 61 92 93 B0 86 B2 B0 B2 B1 B0 
HI HI AE C7 88 55 00 D4 92 3C 09 02 73 49 83 61 92 93 B0 7E B2 B0 B2 B1 B0 
HI HI AE C7 88 55 00 D4 92 3C 09 02 47 6D 81 61 9   

------------------------  FO-29の軌道要素 ------------------------------        
 
  ■ 軌道要素1:「jamsat−keps:1293」より         
          SB KEPS @ AMSAT  $ORB03086.N
          2Line Orbital Elements 03086.AMSAT

HR AMSAT ORBITAL ELEMENTS FOR AMATEUR SATELLITES IN NASA FORMAT
FROM WA5QGD FORT WORTH,TX March 27, 2003
SEND SUBSCRIBE/UNSUBSCRIBE TO majordomo@amsat.org ONLY
BID: ORB03086.N

 DECODE 2-LINE ELSETS WITH THE FOLLOWING KEY:
 1 AAAAAU 00  0  0 BBBBB.BBBBBBBB  .CCCCCCCC  00000-0  00000-0 0  DDDZ
 2 AAAAA EEE.EEEE FFF.FFFF GGGGGGG HHH.HHHH III.IIII JJ.JJJJJJJJKKKKKZ
 KEY: A-CATALOGNUM B-EPOCHTIME C-DECAY D-ELSETNUM E-INCLINATION F-RAAN
 G-ECCENTRICITY H-ARGPERIGEE I-MNANOM J-MNMOTION K-ORBITNUM Z-CHECKSUM

FO-29
1 24278U 96046B   03085.92912537 -.00000035  00000-0 -20674-5 0 05824
2 24278 098.5422 232.2200 0351408 122.1753 241.3974 13.52876490326228

 ■ 軌道要素2:「jamsat−keps:1294」より 
       SB KEPS @ AMSAT  $ORB03086.O
       Orbital Elements  03086.OSCAR

HR AMSAT ORBITAL ELEMENTS FOR OSCAR SATELLITES
FROM WA5QGD FORT WORTH,TX March 27, 2003
SEND SUBSCRIBE/UNSUBSCRIBE TO majordomo@amsat.org ONLY
BID: ORB03086.O
TO ALL RADIO AMATEURS BT
 
Satellite: FO-29
Catalog number: 24278
Epoch time:      03085.92912537
Element set:    0582
Inclination:      098.5422 deg
RA of node:       232.2200 deg
Eccentricity:    0.0351408
Arg of perigee:   122.1753 deg
Mean anomaly:     241.3974 deg
Mean motion:   13.52876490 rev/day
Decay rate:       -3.5e-07 rev/day^2
Epoch rev:           32622
Checksum:              296

-------------------  FO-29(JAS-2)のテレメトリに関する情報  ---------------------- 
 
2)上記2003年3月29日(土)のテレメトリの15:00のパスの最終行を分析して
 おきます。

AS32655C  29Mar2003
14:07-14:10(JST)
AOS   MEL  LOS  Elev
 27    98  168  28.1
Freq. 435.788-.787Hz
(JAS-2  No.120  B 390-540)

HI HI AE C7 88 55 00 D4 05 38 64 58 5A 79 61 88 91 93 B0 95 B1 AF B1 B0 AF 

テレメトリ   内 容        換算算値 単 位
3C	磁気センサーZ軸=	44117.6	[nT]
3D	磁気センサX軸	=	59313.7	[nT]
4A	太陽電池発生電流=	951.0	[mA]
4B	B充放電電流	=	665.6	[mA]
4C	B端子電圧	=	15.6	[V]
4D	B中間端子電圧	=	7.1	[V]
5A	バス電圧	=	17.3	[V]
5B	JTA送信電力	=	870.4	[mW]
5C 	構体温度1	=	13.1	[℃]
5D	構体温度2	=	13.9	[℃]
6A	構体温度3	=	13.1	[℃]
6B	構体温度4	=	13.5	[℃]
6C	Bセル温度	=	13.9	[℃]

 ========================== FO-29(ふじ3号)のテレメトリ分析、QSO情報等 =====================
   
 3)[jamsat-bb:12920]FO-29 CW telemetryにおいて脇田美根夫氏がFO-29 のテレメトリ-の詳しい解析を
  されていましたので転載させて頂きました。

 2003年2月3日に受信された衛星 FO-29 の CWテレメトリ
を、プログラム『Fo29cwt2』を用いて解析してみました。

http://www.asahi-net.or.jp/~ei7m-wkt/numbr364.htm
http://www.ne.jp/asahi/hamradio/je9pel/fo29cwt2.zip

-------------------------------------------
Name: JE9PEL/1 脇田
Mail: ei7m-wkt@asahi-net.or.jp
URL : http://www.asahi-net.or.jp/~ei7m-wkt/
QTH : Yokohama, Japan
Date: Feb 7, 2003
-------------------------------------------
 =================================================================================================
 
 4)JARL のホームページに運用予定が記載されていましたのでご紹介します.
       ( http://www.jarl.or.jp/Japanese/3_Fuji/new/uy.htm )
       
        *** 運用予定について ***

        当分の間     アナログ系運用

  * なお,運用予定は都合により,変更することがありますの,であらかじめご了承願います。

 照会先 : lab@jarl.or.jp

 最新の情報はテレホンサービス(03−3942−1000)をお聞きください。  
  
  ふじ2号(JAS−1b)の運用 

 CWテレメトリの機能に障害が発生しています。詳細は「ふじ2号」の現況をご覧ください。
 運用はアナログ系の連続運用とします。 
     
-----------------------    FO−20(JAS-1b)道要素   -------------------------
  
  ■ 軌道要素1 :出典はFO-29「ふじ3号」に同じ.
  
FO-20
1 20480U 90013C   03085.87396564 -.00000046  00000-0 -21576-4 0 04904
2 20480 099.0524 041.8031 0539683 281.6710 072.4331 12.83330845615178
 
  ■ 軌道要素2 :出典はFO−29「ふじ3号」に同じ.
               
Satellite: FO-20
Catalog number: 20480
Epoch time:      03085.87396564
Element set:    0490
Inclination:      099.0524 deg
RA of node:       041.8031 deg
Eccentricity:    0.0539683
Arg of perigee:   281.6710 deg
Mean anomaly:     072.4331 deg
Mean motion:   12.83330845 rev/day
Decay rate:       -4.6e-07 rev/day^2
Epoch rev:           61517
Checksum:              297

-------------------------------------------------------------------------------- 
         ■ ふじ2号/FO−20/JAS-1b ■      
            
          「ふじ2号」 現況                                                                                  
             
   JAS-1b(ふじ2号)のCWテレメトリ信号に,1997年10月12日12時(JST)の
 日本上空通過時,3桁の数字が繰り返されるはずが3個の長音の繰り返しとなっているという
 異常が発見されました。この不具合は次の通過時からは回復していましたが13日15時20分の
 通過時に再び観測されました。現在はA0の送信が続いています。衛星のアナログ系中継モード
 動作は異常が無く,正常時のテレメトリ内容からは衛星の動作に異常は認められません。従って,
 直ちに衛星のミッションに影響することは無いと予想されますので,当面はアナログ系中継
 モードを継続します。衛星は既に打ち上げてから7年8ヶ月を経ておりますので,今後は監視を
 強化する予定です。アマチュア各位のレポートをお待ちします。
 -------------------------------------------------------------------------------- 
  1997年10月14日 00時35分 確認のテレメトリ音 151 KB (A0) 
  1997年10月14日 11時10分 確認のテレメトリ音 216 KB (異常キーイング) 

  以上 JARLのホ−ムページの http://www.jarl.or.jp/Japanese/3_Fuji/new/fuji.htm

===================== FO-20 ふじ2号 のテレメトリ観測結果 ====================

  12月20日(金)13:59(JST)の観測結果ではテレメトリは、以前観測した単一周波数の
正弦波がドップラー効果で周波数がずれていくのみの状態でした。
                                         
   =============   JAS-2 (ふじ3号)と現在までの情報   ===========
  
  A.電話によるふじ3号の運用情報
      社団法人日本アマチュア連盟によるサービス
           TEL .   03− 3942 − 1000
  B.アマチュア無線FAXサービス
      JARLによるふじ3号の軌道情報(オービットカレンダー)
         FAX No.  03− 3233 −0055
  C.WWWブラウザで情報を簡単に見れる人のためにJAS-1,JAS‐1b,
   JAS‐2(ふじ1号からふじ3号の衛星としての運用されるまでの名前)の
   概要、打ち上げまでの状況、運用中における状況を説明したホームページを
   紹介しておきます.

     社団法人日本アマチュア無線連盟(JARL)のホームページ

         http://www.jarl.or.jp/Japanese/3_Fuji/new/fuji.htm
     http://www.jarl.or.jp/Japanese/3_Fuji/history/history.htm
 
     宇宙開発事業団(NASDA)ホームページ 

      1)「ふじ1号」(JAS−1:FO−12)
         http://spaceboy.nasda.go.jp/lib/satellites/jas/j/jas_01_j.html
         http://spaceboy.nasda.go.jp/lib/satellites/jas/g/h_15_017.jpg
         http://spaceboy.nasda.go.jp/lib/satellites/jas/e/jas_01_e.html
         http://space.nasda.go.jp/db/kaihatu/eisei/eisei_j/jas_1_a_j.html#2
         http://spaceboy.nasda.go.jp/note/eisei/j/eis15h_j.html#eis15h_01_j
         http://www.nasda.go.jp/lib/nasda-news/1996/12/resai_j.html
         http://spaceboy.nasda.go.jp/lib/satellites/jas/g/h_15_007.jpg
         http://www.nasda.go.jp/press/2002/02/pb_020220_j.html

      2)「ふじ2号」(JAS−1b:FO−20)
         http://spaceboy.nasda.go.jp/lib/satellites/mos/g/h_21_018.jpg
         http://spaceboy.nasda.go.jp/lib/satellites/mos/g/h_21_019.jpg
         http://spaceboy.nasda.go.jp/note/eisei/j/eis15h_j.html#eis15h_01_j

      3)「ふじ3号」(JAS−2:FO−29)
         http://www.nasda.go.jp/lib/nasda-news/1996/09/h2_j.html
         http://www.nasda.go.jp/pr/services/presskit/h2-f4/p-h2_3_e.html
         http://space.nasda.go.jp/db/kaihatu/eisei/eisei_j/jas-2_j.html
         http://spaceboy.nasda.go.jp/note/eisei/j/eis15i_j.html#eis15i_03_j

  D.JAMSATによる軌道情報の活用
        JAMSATのホームページまたはjamsat−kepsの軌道要素より
      衛星の軌道情報を得る.
     JAMSATホームページ
               URL    http://www.jamsat.or.jp
       上記ホームページでは各地で行われるアマチュア通信衛星に関する
      ミューティングのお知らせや世界のアマチュア衛星に関する情報が
      満載されています.

 ========================================================================  
     JAMSATのメンバーのご協力によりJH6MME(高山 秀造)が
    執筆・編集を担当しております.ご指摘の意見、疑問やこのようにしたら
    というアイデアがありましたら小さなことでもかまいませんので気軽に下
    記アドレスまでご連絡ください.jamsat−newsからjas2
    infoへの転載をJH4PHW局坂井さんに担当して頂いております.  
                  E-mail : jh6mme@jamsat.or.jp : jh4phw@jamsat.or.jp
 ===============================   END  ===============================